GPS BIIF-10 (40730 NORAD) Tracking and Keplerian Element Data

This shows tracking and keplerian element data for the satellite.

Feedback or suggestion? Click here.




ElementValue
Catalog40730
NameGPS BIIF-10
Epoch Orbit2337
Epoch Day266.26869936
Epoch Year2018
RAAN21.2894
Inclination55.5652
Eccentricity0.0036461
Argument of Perigee333.1967
Mean Anonmoly26.6222
Mean Motion2.00569133
Decay Rate-8E-07
L11 40730U 15033A 18266.26869936 -.00000080 00000-0 00000-0 0 9997
L22 40730 55.5652 21.2894 0036461 333.1967 26.6222 2.00569133 23376

Live tracking and technical data element details for GPS BIIF-10 (NORAD 40730). GPS BIIF-10 can be tracked NOW for your location showing map with azimuth and elevation plus other details from your city location.

Track the satellite on the map from your city or location and see movement details for azimuth, elevation, latitude, longitude, range, height, and movement on the map or in text.







IsCatalogInMostPopularTable: catalog: 40730, numindb: 97
Update: records affected: 1



GetName: 40730 GPS BIIF-10

Hit Count: updated at: Tue, 25 Sep 2018 14:32:52 GMT